OMA9504 KPWK-EGSS

Flight info

Callsign OMA9504
Flight time N/A
Altitude 39000
Route DCT KUBBS J547 FNT Q824 HOCKE Q905 SIKBO Q907 MIILS N641A RIKAL/M078F390 DCT 53N050W 55N040W 56N030W 56N020W DCT RESNO DCT NETKI/N0452F390 DCT ENULA DCT ENDEQ Q36 EPOXI L15 FINMA FINM1L
Aircraft A19N/M-SDE3FGHIRWY/LB1

Departure

Time 2026-05-08 03:50
Airport Chicago Executive Airport (KPWK)

Arrival

Time N/A
Airport London Stansted Airport (EGSS)
Time Latitude Longitude Altitude Speed Heading
2026-05-08 03:37 42.11646 -87.90106 662 ft 0 kts 110°
2026-05-08 03:43 42.11644 -87.90096 662 ft 3 kts 99°
2026-05-08 03:43 42.11667 -87.90079 662 ft 6 kts 339°
2026-05-08 03:43 42.11701 -87.90095 662 ft 5 kts 342°
2026-05-08 03:43 42.11725 -87.90113 662 ft 4 kts 293°
2026-05-08 03:44 42.11725 -87.90144 662 ft 4 kts 261°
2026-05-08 03:44 42.11714 -87.90179 662 ft 5 kts 245°
2026-05-08 03:44 42.11716 -87.90223 662 ft 6 kts 313°
2026-05-08 03:44 42.11756 -87.90248 662 ft 8 kts 339°
2026-05-08 03:45 42.11821 -87.90282 662 ft 11 kts 339°
2026-05-08 03:45 42.11892 -87.90318 662 ft 10 kts 339°
2026-05-08 03:45 42.11955 -87.90352 662 ft 9 kts 338°
2026-05-08 03:45 42.12011 -87.90381 662 ft 8 kts 339°
2026-05-08 03:46 42.12060 -87.90406 662 ft 7 kts 339°
2026-05-08 03:46 42.12101 -87.90427 662 ft 6 kts 339°
2026-05-08 03:46 42.12139 -87.90447 662 ft 6 kts 338°
2026-05-08 03:46 42.12174 -87.90466 662 ft 5 kts 338°
2026-05-08 03:47 42.12208 -87.90484 662 ft 5 kts 339°
2026-05-08 03:47 42.12244 -87.90503 662 ft 6 kts 339°
2026-05-08 03:47 42.12286 -87.90524 662 ft 6 kts 339°
2026-05-08 03:47 42.12326 -87.90545 662 ft 6 kts 339°
2026-05-08 03:48 42.12358 -87.90573 662 ft 4 kts 282°
2026-05-08 03:48 42.12353 -87.90605 662 ft 3 kts 248°
2026-05-08 03:48 42.12344 -87.90633 662 ft 3 kts 248°
2026-05-08 03:48 42.12336 -87.90662 662 ft 4 kts 248°
2026-05-08 03:49 42.12325 -87.90696 662 ft 4 kts 240°
2026-05-08 03:49 42.12307 -87.90701 662 ft 0 kts 155°
2026-05-08 03:49 42.12093 -87.90587 662 ft 68 kts 159°
2026-05-08 03:50 42.11457 -87.90252 662 ft 125 kts 159°
2026-05-08 03:50 42.10578 -87.89788 952 ft 135 kts 158°
2026-05-08 03:50 42.09707 -87.89261 1424 ft 139 kts 156°
2026-05-08 03:50 42.08800 -87.88709 1831 ft 150 kts 157°
2026-05-08 03:51 42.07839 -87.88118 2283 ft 154 kts 154°
2026-05-08 03:51 42.06921 -87.87203 2480 ft 177 kts 136°
2026-05-08 03:51 42.06186 -87.85760 2646 ft 195 kts 114°
2026-05-08 03:51 42.05873 -87.84006 3161 ft 192 kts 93°
2026-05-08 03:52 42.06038 -87.82232 3616 ft 192 kts 71°
2026-05-08 03:52 42.06664 -87.80635 3969 ft 203 kts 54°
2026-05-08 03:52 42.07561 -87.78976 4043 ft 239 kts 52°
2026-05-08 03:52 42.08624 -87.77085 4464 ft 263 kts 51°
2026-05-08 03:53 42.09732 -87.75133 5529 ft 265 kts 50°
2026-05-08 03:53 42.10876 -87.73132 6372 ft 274 kts 50°
2026-05-08 03:53 42.12070 -87.71060 7183 ft 284 kts 49°
2026-05-08 03:53 42.13303 -87.68930 8060 ft 289 kts 49°
2026-05-08 03:54 42.14548 -87.66781 8963 ft 293 kts 49°
2026-05-08 03:54 42.15816 -87.64592 9763 ft 299 kts 49°
2026-05-08 03:54 42.17089 -87.62395 10523 ft 308 kts 49°
2026-05-08 03:54 42.18472 -87.60013 10647 ft 338 kts 49°
2026-05-08 03:55 42.19990 -87.57397 10728 ft 367 kts 49°
2026-05-08 03:55 42.21612 -87.54592 10806 ft 392 kts 49°
2026-05-08 03:55 42.23324 -87.51631 11264 ft 402 kts 49°
2026-05-08 03:55 42.25049 -87.48642 11963 ft 406 kts 49°
2026-05-08 03:56 42.26205 -87.46638 12383 ft 409 kts 49°
2026-05-08 03:56 42.27897 -87.43518 13008 ft 416 kts 54°
2026-05-08 03:56 42.29257 -87.40053 13662 ft 422 kts 65°
2026-05-08 03:56 42.30383 -87.34964 14455 ft 431 kts 77°
2026-05-08 03:57 42.30774 -87.32255 14731 ft 437 kts 78°
2026-05-08 03:57 42.31529 -87.26921 15612 ft 440 kts 78°
2026-05-08 03:57 42.31905 -87.24218 15976 ft 443 kts 78°
2026-05-08 03:57 42.32473 -87.20103 16530 ft 448 kts 78°
2026-05-08 03:58 42.33052 -87.15879 17072 ft 453 kts 78°
2026-05-08 03:58 42.33626 -87.11669 17600 ft 457 kts 78°
2026-05-08 03:58 42.34206 -87.07407 18134 ft 462 kts 78°
2026-05-08 03:58 42.34791 -87.03086 18462 ft 471 kts 78°
2026-05-08 03:59 42.35381 -86.98716 19022 ft 474 kts 78°
2026-05-08 03:59 42.35974 -86.94309 19504 ft 478 kts 79°
2026-05-08 03:59 42.36565 -86.89904 19986 ft 482 kts 79°
2026-05-08 03:59 42.37164 -86.85420 20456 ft 486 kts 79°
2026-05-08 04:00 42.37764 -86.80910 20904 ft 490 kts 79°
2026-05-08 04:00 42.38373 -86.76329 21237 ft 496 kts 79°
2026-05-08 04:00 42.38982 -86.71720 21649 ft 499 kts 79°
2026-05-08 04:00 42.39596 -86.67064 21987 ft 504 kts 79°
2026-05-08 04:01 42.40204 -86.62431 22308 ft 508 kts 79°
2026-05-08 04:01 42.40823 -86.57703 22608 ft 512 kts 79°
2026-05-08 04:01 42.41447 -86.52913 22884 ft 517 kts 79°
2026-05-08 04:01 42.42074 -86.48092 23140 ft 521 kts 79°
2026-05-08 04:02 42.42702 -86.43245 23388 ft 526 kts 79°
2026-05-08 04:02 42.43334 -86.38340 23625 ft 530 kts 79°
2026-05-08 04:02 42.43969 -86.33405 23864 ft 534 kts 79°
2026-05-08 04:02 42.44607 -86.28423 23995 ft 540 kts 79°
2026-05-08 04:03 42.45247 -86.23412 24381 ft 540 kts 79°
2026-05-08 04:03 42.46519 -86.13388 24915 ft 544 kts 80°
2026-05-08 04:03 42.47312 -86.08351 25181 ft 545 kts 73°
2026-05-08 04:04 42.48366 -86.03408 25474 ft 546 kts 72°
2026-05-08 04:04 42.49430 -85.98459 25727 ft 548 kts 72°
2026-05-08 04:04 42.50507 -85.93490 25977 ft 550 kts 72°
2026-05-08 04:04 42.51593 -85.88509 26222 ft 552 kts 72°
2026-05-08 04:05 42.52685 -85.83511 26527 ft 552 kts 72°
2026-05-08 04:05 42.53767 -85.78575 26669 ft 556 kts 72°
2026-05-08 04:05 42.54872 -85.73537 26931 ft 557 kts 72°
2026-05-08 04:05 42.55980 -85.68492 27152 ft 559 kts 72°
2026-05-08 04:06 42.57099 -85.63402 27380 ft 561 kts 72°
2026-05-08 04:06 42.58220 -85.58301 27551 ft 566 kts 72°
2026-05-08 04:06 42.59352 -85.53149 27626 ft 572 kts 72°
2026-05-08 04:06 42.60485 -85.47993 27746 ft 577 kts 72°
2026-05-08 04:07 42.61630 -85.42771 28019 ft 577 kts 72°
2026-05-08 04:07 42.62775 -85.37547 28296 ft 577 kts 72°
2026-05-08 04:07 42.63921 -85.32304 28565 ft 578 kts 72°
2026-05-08 04:07 42.65067 -85.27060 28838 ft 578 kts 72°
2026-05-08 04:08 42.66213 -85.21805 29017 ft 581 kts 72°
2026-05-08 04:08 42.67345 -85.16594 29295 ft 582 kts 73°
2026-05-08 04:08 42.68460 -85.11340 29803 ft 575 kts 73°
2026-05-08 04:08 42.69562 -85.06119 30091 ft 576 kts 73°
2026-05-08 04:09 42.70673 -85.00860 30302 ft 578 kts 73°
2026-05-08 04:09 42.71790 -84.95585 30558 ft 579 kts 73°
2026-05-08 04:09 42.74036 -84.85010 30830 ft 588 kts 73°
2026-05-08 04:10 42.75168 -84.79682 31305 ft 581 kts 73°
2026-05-08 04:10 42.76281 -84.74437 31981 ft 573 kts 73°
2026-05-08 04:10 42.77390 -84.69217 32240 ft 575 kts 73°
2026-05-08 04:10 42.78499 -84.63987 32563 ft 574 kts 73°
2026-05-08 04:11 42.79606 -84.58766 32991 ft 571 kts 73°
2026-05-08 04:11 42.80691 -84.53605 33611 ft 563 kts 73°
2026-05-08 04:11 42.81738 -84.48514 34380 ft 551 kts 73°
2026-05-08 04:11 42.82747 -84.43591 35065 ft 542 kts 73°
2026-05-08 04:12 42.83760 -84.38655 35454 ft 540 kts 73°
2026-05-08 04:12 42.84782 -84.33682 35587 ft 545 kts 73°
2026-05-08 04:12 42.86842 -84.23666 35862 ft 553 kts 73°
2026-05-08 04:13 42.87886 -84.18585 35979 ft 559 kts 73°
2026-05-08 04:13 42.88942 -84.13446 36100 ft 563 kts 73°
2026-05-08 04:13 42.89994 -84.08328 36312 ft 566 kts 73°
2026-05-08 04:13 42.91061 -84.03123 36505 ft 569 kts 73°
2026-05-08 04:14 42.92123 -83.97941 36967 ft 564 kts 73°
2026-05-08 04:14 42.93165 -83.92844 37388 ft 562 kts 74°
2026-05-08 04:14 42.94218 -83.87684 37667 ft 562 kts 74°
2026-05-08 04:14 42.95268 -83.82531 37869 ft 564 kts 74°
2026-05-08 04:15 42.96323 -83.77340 38083 ft 566 kts 74°
2026-05-08 04:15 42.97530 -83.72301 38341 ft 565 kts 68°
2026-05-08 04:15 42.98947 -83.67305 38684 ft 563 kts 67°
2026-05-08 04:15 43.00366 -83.62324 38881 ft 563 kts 67°
2026-05-08 04:16 43.03210 -83.52394 38969 ft 551 kts 67°
2026-05-08 04:16 43.05990 -83.42712 38965 ft 550 kts 67°
2026-05-08 04:17 43.08807 -83.32911 38964 ft 553 kts 67°
2026-05-08 04:17 43.11601 -83.23182 38963 ft 552 kts 67°
2026-05-08 04:18 43.14403 -83.13408 38963 ft 552 kts 67°
2026-05-08 04:18 43.17205 -83.03610 38963 ft 552 kts 67°
2026-05-08 04:19 43.20001 -82.93807 38963 ft 554 kts 67°
2026-05-08 04:19 43.22790 -82.84000 38977 ft 546 kts 67°
2026-05-08 04:20 43.25507 -82.74407 38971 ft 540 kts 67°
2026-05-08 04:20 43.27430 -82.64443 38976 ft 541 kts 80°
2026-05-08 04:21 43.28699 -82.54169 38973 ft 546 kts 81°
2026-05-08 04:21 43.29950 -82.43979 38973 ft 539 kts 81°
2026-05-08 04:22 43.31202 -82.33788 38973 ft 542 kts 81°
2026-05-08 04:22 43.32449 -82.23613 38972 ft 545 kts 81°
2026-05-08 04:23 43.33709 -82.13332 38971 ft 546 kts 81°
2026-05-08 04:23 43.35004 -82.03017 38970 ft 547 kts 81°
2026-05-08 04:24 43.36280 -81.92872 38975 ft 534 kts 81°
2026-05-08 04:24 43.37527 -81.82896 38983 ft 527 kts 81°
2026-05-08 04:25 43.38754 -81.73001 38986 ft 520 kts 81°
2026-05-08 04:25 43.39953 -81.63263 38989 ft 511 kts 81°
2026-05-08 04:26 43.41114 -81.53756 38991 ft 504 kts 81°
2026-05-08 04:26 43.42261 -81.44291 38992 ft 499 kts 81°
2026-05-08 04:27 43.43394 -81.34871 38992 ft 498 kts 81°
2026-05-08 04:27 43.44523 -81.25420 38992 ft 503 kts 81°
2026-05-08 04:28 43.45656 -81.15860 38990 ft 510 kts 81°
2026-05-08 04:28 43.46794 -81.06191 38988 ft 518 kts 81°
2026-05-08 04:29 43.47947 -80.96306 38978 ft 528 kts 81°
2026-05-08 04:29 43.49120 -80.86181 38974 ft 542 kts 82°
2026-05-08 04:30 43.50301 -80.75890 38969 ft 551 kts 82°
2026-05-08 04:30 43.51505 -80.65318 38967 ft 563 kts 82°
2026-05-08 04:31 43.52711 -80.54636 38964 ft 562 kts 82°
2026-05-08 04:31 43.53896 -80.44045 38963 ft 562 kts 82°
2026-05-08 04:32 43.55080 -80.33370 38963 ft 562 kts 82°
2026-05-08 04:32 43.56252 -80.22706 38965 ft 562 kts 83°
2026-05-08 04:33 43.57409 -80.12087 38968 ft 562 kts 83°
2026-05-08 04:33 43.58562 -80.01407 38964 ft 562 kts 83°
2026-05-08 04:34 43.59705 -79.90728 38966 ft 562 kts 83°
2026-05-08 04:34 43.60820 -79.80187 38965 ft 546 kts 83°
2026-05-08 04:35 43.61912 -79.69810 38952 ft 547 kts 83°
2026-05-08 04:35 43.62993 -79.59424 38953 ft 544 kts 83°
2026-05-08 04:36 43.64050 -79.49184 38968 ft 533 kts 83°
2026-05-08 04:36 43.65082 -79.39086 38983 ft 537 kts 83°
2026-05-08 04:37 43.66867 -79.29121 38989 ft 534 kts 67°
2026-05-08 04:37 43.69707 -79.19650 38985 ft 533 kts 66°
2026-05-08 04:38 43.72585 -79.10168 38985 ft 534 kts 66°
2026-05-08 04:38 43.75458 -79.00738 38974 ft 535 kts 65°
2026-05-08 04:39 43.78375 -78.91181 38955 ft 547 kts 65°
2026-05-08 04:39 43.81348 -78.81435 38949 ft 550 kts 65°
2026-05-08 04:40 43.84333 -78.71635 38948 ft 556 kts 65°
2026-05-08 04:40 43.87351 -78.61710 38951 ft 558 kts 65°
2026-05-08 04:41 43.90362 -78.51782 38959 ft 558 kts 65°
2026-05-08 04:41 43.93369 -78.41839 38958 ft 556 kts 66°
2026-05-08 04:42 43.96329 -78.32016 38968 ft 556 kts 66°
2026-05-08 04:42 43.99311 -78.22089 38974 ft 557 kts 66°
2026-05-08 04:43 44.02283 -78.12161 38973 ft 555 kts 66°
2026-05-08 04:43 44.04734 -78.03947 38969 ft 552 kts 66°
2026-05-08 04:44 44.07666 -77.94088 38966 ft 551 kts 66°
2026-05-08 04:44 44.10574 -77.84270 38964 ft 551 kts 66°
2026-05-08 04:45 44.13492 -77.74383 38955 ft 551 kts 66°
2026-05-08 04:45 44.16399 -77.64495 38946 ft 551 kts 66°
2026-05-08 04:46 44.19294 -77.54611 38940 ft 550 kts 67°
2026-05-08 04:46 44.22662 -77.45155 38943 ft 548 kts 57°
2026-05-08 04:47 44.26632 -77.36034 38945 ft 549 kts 56°
2026-05-08 04:47 44.30637 -77.26942 38951 ft 549 kts 55°
2026-05-08 04:48 44.34657 -77.17878 38939 ft 547 kts 55°
2026-05-08 04:48 44.38657 -77.08885 38935 ft 548 kts 55°
2026-05-08 04:49 44.42697 -76.99814 38931 ft 548 kts 55°
2026-05-08 04:49 44.46705 -76.90819 38939 ft 532 kts 55°
2026-05-08 04:50 44.50579 -76.82119 38939 ft 528 kts 56°
2026-05-08 04:50 44.54451 -76.73415 38930 ft 522 kts 56°
2026-05-08 04:51 44.58263 -76.64823 38939 ft 515 kts 56°
2026-05-08 04:51 44.61997 -76.56392 38952 ft 506 kts 56°
2026-05-08 04:52 44.65677 -76.48063 38967 ft 497 kts 57°
2026-05-08 04:52 44.69304 -76.39834 38977 ft 492 kts 57°
2026-05-08 04:53 44.72881 -76.31695 38985 ft 492 kts 57°
2026-05-08 04:53 44.76498 -76.23446 38981 ft 496 kts 57°
2026-05-08 04:54 44.78048 -76.19072 38971 ft 502 kts 69°
2026-05-08 04:54 44.79249 -76.14414 38969 ft 508 kts 70°
2026-05-08 04:54 44.81652 -76.05004 38947 ft 519 kts 70°
2026-05-08 04:55 44.84126 -75.95319 38932 ft 528 kts 70°
2026-05-08 04:55 44.86626 -75.85536 38923 ft 535 kts 70°
2026-05-08 04:56 44.89178 -75.75549 38923 ft 542 kts 70°
2026-05-08 04:56 44.91714 -75.65603 38942 ft 541 kts 70°
2026-05-08 04:57 44.94266 -75.55575 38954 ft 541 kts 70°
2026-05-08 04:57 44.96806 -75.45564 38960 ft 542 kts 70°
2026-05-08 04:58 44.99331 -75.35580 38962 ft 542 kts 70°
2026-05-08 04:58 45.01836 -75.25638 38953 ft 531 kts 70°
2026-05-08 04:59 45.04312 -75.15773 38946 ft 531 kts 70°
2026-05-08 04:59 45.06774 -75.05928 38941 ft 530 kts 70°
2026-05-08 05:00 45.09212 -74.96139 38967 ft 534 kts 70°
2026-05-08 05:00 45.11697 -74.86122 38992 ft 539 kts 70°
2026-05-08 05:01 45.14115 -74.76148 38992 ft 533 kts 72°
2026-05-08 05:01 45.16537 -74.66223 38993 ft 531 kts 69°
2026-05-08 05:02 45.19124 -74.56503 38993 ft 528 kts 69°
2026-05-08 05:02 45.21719 -74.46777 38993 ft 526 kts 69°
2026-05-08 05:03 45.24287 -74.37114 38993 ft 516 kts 69°
2026-05-08 05:03 45.26781 -74.27694 38994 ft 509 kts 69°
2026-05-08 05:04 45.29246 -74.18344 38994 ft 501 kts 69°
2026-05-08 05:04 45.31674 -74.09094 38995 ft 500 kts 69°
2026-05-08 05:05 45.34110 -73.99776 38995 ft 505 kts 69°
2026-05-08 05:05 45.36546 -73.90419 38984 ft 511 kts 69°
2026-05-08 05:06 45.39034 -73.80822 38957 ft 520 kts 69°
2026-05-08 05:06 45.41495 -73.71283 38936 ft 505 kts 69°
2026-05-08 05:07 45.43896 -73.61945 38958 ft 499 kts 69°
2026-05-08 05:07 45.46297 -73.52572 38982 ft 508 kts 69°
2026-05-08 05:08 45.48752 -73.42946 38938 ft 524 kts 69°
2026-05-08 05:08 45.51234 -73.33165 38910 ft 528 kts 69°
2026-05-08 05:09 45.53724 -73.23315 38910 ft 523 kts 70°
2026-05-08 05:09 45.56176 -73.13574 38924 ft 519 kts 70°
2026-05-08 05:10 45.59808 -72.99067 38944 ft 520 kts 70°
2026-05-08 05:11 45.62236 -72.89314 38954 ft 522 kts 70°
2026-05-08 05:11 45.64660 -72.79543 38990 ft 522 kts 70°
2026-05-08 05:12 45.67066 -72.69791 38993 ft 523 kts 70°
2026-05-08 05:12 45.69477 -72.59981 38993 ft 520 kts 70°
2026-05-08 05:13 45.71859 -72.50250 38993 ft 517 kts 70°
2026-05-08 05:13 45.74235 -72.40497 38925 ft 516 kts 71°
2026-05-08 05:14 45.76583 -72.30819 38898 ft 517 kts 71°
2026-05-08 05:14 45.78941 -72.21057 38875 ft 520 kts 71°
2026-05-08 05:15 45.81312 -72.11198 38828 ft 526 kts 71°
2026-05-08 05:15 45.83686 -72.01279 38816 ft 529 kts 71°
2026-05-08 05:16 45.86072 -71.91267 38811 ft 528 kts 71°
2026-05-08 05:16 45.88447 -71.81259 38811 ft 529 kts 71°
2026-05-08 05:17 45.90797 -71.71308 38801 ft 528 kts 72°
2026-05-08 05:17 45.93154 -71.61282 38792 ft 528 kts 72°
2026-05-08 05:18 45.95480 -71.51338 38792 ft 528 kts 72°
2026-05-08 05:18 45.97812 -71.41337 38819 ft 525 kts 72°
2026-05-08 05:19 46.00124 -71.31357 38827 ft 526 kts 72°
2026-05-08 05:19 46.02417 -71.21423 38826 ft 526 kts 72°
2026-05-08 05:20 46.04718 -71.11404 38827 ft 524 kts 72°
2026-05-08 05:20 46.06986 -71.01489 38831 ft 524 kts 72°
2026-05-08 05:21 46.09262 -70.91490 38856 ft 524 kts 72°
2026-05-08 05:21 46.11516 -70.81543 38906 ft 524 kts 73°
2026-05-08 05:22 46.13770 -70.71549 38944 ft 524 kts 73°
2026-05-08 05:22 46.16010 -70.61567 38938 ft 525 kts 73°
2026-05-08 05:23 46.18251 -70.51534 38920 ft 525 kts 73°
2026-05-08 05:23 46.20484 -70.41491 38892 ft 525 kts 73°
2026-05-08 05:24 46.22709 -70.31438 38859 ft 525 kts 73°
2026-05-08 05:24 46.24832 -70.21326 38829 ft 524 kts 75°
2026-05-08 05:25 46.26906 -70.11274 38837 ft 525 kts 74°
2026-05-08 05:25 46.29045 -70.01181 38836 ft 525 kts 74°
2026-05-08 05:26 46.31184 -69.91092 38847 ft 525 kts 74°
2026-05-08 05:26 46.33306 -69.81048 38857 ft 525 kts 74°
2026-05-08 05:27 46.35438 -69.70900 38864 ft 525 kts 74°
2026-05-08 05:27 46.37554 -69.60780 38889 ft 525 kts 74°
2026-05-08 05:28 46.39647 -69.50711 38909 ft 525 kts 74°
2026-05-08 05:28 46.41749 -69.40550 38918 ft 525 kts 75°
2026-05-08 05:29 46.43833 -69.30424 38935 ft 523 kts 75°
2026-05-08 05:29 46.45894 -69.20355 38937 ft 523 kts 75°
2026-05-08 05:30 46.47959 -69.10210 38929 ft 523 kts 75°
2026-05-08 05:30 46.50012 -69.00078 38922 ft 522 kts 75°
2026-05-08 05:31 46.52040 -68.90015 38918 ft 522 kts 75°
2026-05-08 05:31 46.53730 -68.81586 38917 ft 522 kts 75°
2026-05-08 05:32 46.55750 -68.71468 38905 ft 521 kts 75°
2026-05-08 05:32 46.57763 -68.61331 38813 ft 520 kts 76°
2026-05-08 05:33 46.59760 -68.51220 38785 ft 521 kts 76°
2026-05-08 05:33 46.61741 -68.41140 38770 ft 521 kts 76°
2026-05-08 05:34 46.63724 -68.30995 38762 ft 521 kts 76°
2026-05-08 05:34 46.65695 -68.20852 38754 ft 520 kts 76°
2026-05-08 05:35 46.67659 -68.10694 38747 ft 520 kts 76°
2026-05-08 05:35 46.69601 -68.00606 38746 ft 520 kts 76°
2026-05-08 05:36 46.71539 -67.90476 38756 ft 518 kts 76°
2026-05-08 05:36 46.73465 -67.80357 38779 ft 515 kts 76°
2026-05-08 05:37 46.75346 -67.70295 38803 ft 513 kts 76°
2026-05-08 05:37 46.77217 -67.60263 38819 ft 511 kts 76°
2026-05-08 05:38 46.79079 -67.50295 38828 ft 511 kts 76°
2026-05-08 05:38 46.80952 -67.40280 38902 ft 510 kts 76°
2026-05-08 05:39 46.82802 -67.30340 38968 ft 505 kts 76°
2026-05-08 05:39 46.84651 -67.20391 38992 ft 511 kts 76°
2026-05-08 05:40 46.86577 -67.10354 38992 ft 514 kts 72°
2026-05-08 05:40 46.89687 -67.00979 38992 ft 518 kts 57°
2026-05-08 05:41 46.93679 -66.92178 38993 ft 519 kts 55°
2026-05-08 05:41 46.97866 -66.83526 38993 ft 520 kts 54°
2026-05-08 05:42 47.02050 -66.74959 38993 ft 519 kts 54°
2026-05-08 05:42 47.06253 -66.66340 38993 ft 518 kts 54°
2026-05-08 05:43 47.10447 -66.57713 38993 ft 518 kts 54°
2026-05-08 05:43 47.14615 -66.49119 38963 ft 522 kts 54°
2026-05-08 05:44 47.18825 -66.40398 38946 ft 521 kts 54°
2026-05-08 05:44 47.22992 -66.31741 38934 ft 521 kts 55°
2026-05-08 05:45 47.27180 -66.23013 38920 ft 521 kts 55°
2026-05-08 05:45 47.31310 -66.14371 38900 ft 514 kts 54°
2026-05-08 05:46 47.35436 -66.05724 38874 ft 515 kts 54°
2026-05-08 05:46 47.39530 -65.97110 38837 ft 516 kts 54°
2026-05-08 05:47 47.43655 -65.88404 38795 ft 517 kts 54°
2026-05-08 05:47 47.47777 -65.79676 38753 ft 519 kts 55°
2026-05-08 05:48 47.51893 -65.70934 38723 ft 521 kts 55°
2026-05-08 05:48 47.56035 -65.62108 38713 ft 522 kts 56°
2026-05-08 05:49 47.60177 -65.53246 38726 ft 522 kts 56°
2026-05-08 05:49 47.64285 -65.44432 38727 ft 522 kts 56°
2026-05-08 05:50 47.68403 -65.35570 38748 ft 521 kts 56°
2026-05-08 05:50 47.72517 -65.26687 38773 ft 521 kts 56°
2026-05-08 05:51 47.76619 -65.17802 38784 ft 521 kts 56°
2026-05-08 05:51 47.80686 -65.08962 38781 ft 518 kts 56°
2026-05-08 05:52 47.84737 -65.00127 38782 ft 516 kts 56°
2026-05-08 05:52 47.88775 -64.91295 38760 ft 515 kts 56°
2026-05-08 05:53 47.92768 -64.82531 38764 ft 512 kts 56°
2026-05-08 05:53 47.96757 -64.73747 38806 ft 506 kts 56°
2026-05-08 05:54 48.00655 -64.65138 38864 ft 499 kts 56°
2026-05-08 05:54 48.04516 -64.56584 38897 ft 494 kts 56°
2026-05-08 05:55 48.08358 -64.48044 38912 ft 495 kts 56°
2026-05-08 05:55 48.12186 -64.39506 38926 ft 500 kts 56°
2026-05-08 05:56 48.16083 -64.30791 38900 ft 506 kts 56°
2026-05-08 05:56 48.20012 -64.21971 38879 ft 510 kts 56°
2026-05-08 05:57 48.23961 -64.13079 38870 ft 513 kts 57°
2026-05-08 05:57 48.27893 -64.04197 38868 ft 514 kts 57°
2026-05-08 05:58 48.31844 -63.95242 38868 ft 514 kts 57°
2026-05-08 05:58 48.35786 -63.86278 38867 ft 514 kts 57°
2026-05-08 05:59 48.39728 -63.77288 38838 ft 518 kts 57°
2026-05-08 05:59 48.43693 -63.68209 38801 ft 519 kts 57°
2026-05-08 06:00 48.47656 -63.59104 38788 ft 519 kts 58°
2026-05-08 06:00 48.51604 -63.50005 38774 ft 519 kts 58°
2026-05-08 06:01 48.55561 -63.40855 38751 ft 520 kts 58°
2026-05-08 06:01 48.59481 -63.31760 38648 ft 519 kts 58°
2026-05-08 06:02 48.63412 -63.22605 38639 ft 520 kts 58°
2026-05-08 06:02 48.67347 -63.13410 38639 ft 520 kts 58°
2026-05-08 06:03 48.71273 -63.04207 38638 ft 520 kts 58°
2026-05-08 06:03 48.75173 -62.95030 38636 ft 521 kts 58°
2026-05-08 06:04 48.79087 -62.85793 38634 ft 521 kts 59°
2026-05-08 06:04 48.82986 -62.76549 38657 ft 518 kts 58°
2026-05-08 06:05 48.86865 -62.67337 38667 ft 518 kts 58°
2026-05-08 06:05 48.90711 -62.58165 38672 ft 517 kts 58°
2026-05-08 06:06 48.94566 -62.48936 38677 ft 516 kts 58°
2026-05-08 06:06 48.98407 -62.39711 38682 ft 515 kts 59°
2026-05-08 06:07 49.02236 -62.30484 38683 ft 515 kts 59°
2026-05-08 06:07 49.06058 -62.21240 38681 ft 516 kts 59°
2026-05-08 06:08 49.09881 -62.11965 38684 ft 515 kts 59°
2026-05-08 06:08 49.13674 -62.02728 38705 ft 512 kts 59°
2026-05-08 06:09 49.17437 -61.93529 38750 ft 507 kts 59°
2026-05-08 06:09 49.21136 -61.84460 38802 ft 502 kts 58°
2026-05-08 06:10 49.24817 -61.75404 38832 ft 500 kts 58°
2026-05-08 06:10 49.28490 -61.66334 38837 ft 501 kts 58°
2026-05-08 06:11 49.32161 -61.57241 38826 ft 502 kts 59°
2026-05-08 06:11 49.35815 -61.48156 38807 ft 504 kts 59°
2026-05-08 06:12 49.39506 -61.38948 38786 ft 506 kts 59°
2026-05-08 06:12 49.43198 -61.29706 38770 ft 508 kts 59°
2026-05-08 06:13 49.46903 -61.20399 38756 ft 511 kts 59°
2026-05-08 06:13 49.50617 -61.11035 38737 ft 513 kts 59°
2026-05-08 06:14 49.54338 -61.01620 38723 ft 515 kts 60°
2026-05-08 06:14 49.58034 -60.92238 38712 ft 516 kts 60°
2026-05-08 06:15 49.61787 -60.82677 38660 ft 522 kts 60°
2026-05-08 06:15 49.65533 -60.73089 38662 ft 520 kts 60°
2026-05-08 06:16 49.69221 -60.63622 38730 ft 514 kts 60°
2026-05-08 06:16 49.72896 -60.54156 38742 ft 514 kts 60°
2026-05-08 06:17 49.78376 -60.39976 38755 ft 512 kts 60°
2026-05-08 06:17 49.82021 -60.30500 38760 ft 512 kts 60°
2026-05-08 06:18 49.85656 -60.21015 38759 ft 512 kts 60°
2026-05-08 06:18 49.88678 -60.13105 38752 ft 513 kts 60°
2026-05-08 06:19 49.92903 -60.02005 38741 ft 515 kts 60°
2026-05-08 06:19 49.95948 -59.93988 38696 ft 521 kts 61°
2026-05-08 06:20 49.99620 -59.84258 38687 ft 520 kts 62°
2026-05-08 06:20 50.03281 -59.74534 38703 ft 520 kts 62°
2026-05-08 06:21 50.06924 -59.64821 38729 ft 520 kts 62°
2026-05-08 06:21 50.10572 -59.55061 38755 ft 520 kts 62°
2026-05-08 06:22 50.14181 -59.45366 38773 ft 520 kts 62°
2026-05-08 06:22 50.17809 -59.35589 38779 ft 520 kts 62°
2026-05-08 06:23 50.21427 -59.25803 38777 ft 520 kts 62°
2026-05-08 06:23 50.25030 -59.16018 38772 ft 520 kts 62°
2026-05-08 06:24 50.28635 -59.06191 38769 ft 520 kts 62°
2026-05-08 06:24 50.32237 -58.96335 38753 ft 520 kts 62°
2026-05-08 06:25 50.35822 -58.86490 38741 ft 520 kts 62°
2026-05-08 06:25 50.39378 -58.76685 38732 ft 520 kts 62°
2026-05-08 06:26 50.42941 -58.66825 38721 ft 520 kts 62°
2026-05-08 06:26 50.46501 -58.56933 38722 ft 519 kts 62°
2026-05-08 06:27 50.50043 -58.47053 38789 ft 518 kts 62°
2026-05-08 06:27 50.53557 -58.37197 38933 ft 508 kts 62°
2026-05-08 06:28 50.56995 -58.27545 38990 ft 509 kts 62°
2026-05-08 06:28 50.60456 -58.17791 38993 ft 510 kts 62°
2026-05-08 06:29 50.63921 -58.07988 38939 ft 516 kts 62°
2026-05-08 06:29 50.67409 -57.98065 38932 ft 518 kts 63°
2026-05-08 06:30 50.70889 -57.88124 38989 ft 518 kts 63°
2026-05-08 06:30 50.74352 -57.78204 38992 ft 518 kts 63°
2026-05-08 06:31 50.77817 -57.68235 38993 ft 517 kts 63°
2026-05-08 06:31 50.81276 -57.58247 38993 ft 516 kts 63°
2026-05-08 06:32 50.84692 -57.48342 38993 ft 516 kts 63°
2026-05-08 06:32 50.88124 -57.38353 38993 ft 515 kts 63°
2026-05-08 06:33 50.91538 -57.28376 38993 ft 515 kts 63°
2026-05-08 06:33 50.94943 -57.18385 38993 ft 514 kts 63°
2026-05-08 06:34 50.98318 -57.08444 38993 ft 514 kts 64°
2026-05-08 06:34 51.01706 -56.98424 38993 ft 514 kts 64°
2026-05-08 06:35 51.05076 -56.88418 38993 ft 514 kts 64°
2026-05-08 06:35 51.08430 -56.78419 38993 ft 514 kts 64°
2026-05-08 06:36 51.11786 -56.68376 38991 ft 514 kts 64°
2026-05-08 06:36 51.15119 -56.58360 38922 ft 513 kts 64°
2026-05-08 06:37 51.18451 -56.48301 38886 ft 514 kts 63°
2026-05-08 06:37 51.21782 -56.38218 38850 ft 513 kts 63°
2026-05-08 06:38 51.25081 -56.28170 38862 ft 509 kts 63°
2026-05-08 06:38 51.28373 -56.18128 38897 ft 510 kts 63°
2026-05-08 06:39 51.31635 -56.08128 38931 ft 510 kts 63°
2026-05-08 06:39 51.34904 -55.98064 38948 ft 508 kts 63°
2026-05-08 06:40 51.38137 -55.88071 38952 ft 503 kts 63°
2026-05-08 06:40 51.41332 -55.78152 38956 ft 497 kts 63°
2026-05-08 06:41 51.44479 -55.68348 38964 ft 493 kts 63°
2026-05-08 06:41 51.47615 -55.58537 38965 ft 493 kts 63°
2026-05-08 06:42 51.50724 -55.48775 38959 ft 494 kts 63°
2026-05-08 06:42 51.53854 -55.38903 38939 ft 496 kts 63°
2026-05-08 06:43 51.56993 -55.28965 38903 ft 499 kts 63°
2026-05-08 06:43 51.60117 -55.19033 38857 ft 502 kts 63°
2026-05-08 06:44 51.63268 -55.08972 38745 ft 504 kts 63°
2026-05-08 06:44 51.66432 -54.98835 38687 ft 507 kts 63°
2026-05-08 06:45 51.69597 -54.88645 38653 ft 508 kts 63°
2026-05-08 06:45 51.72759 -54.78428 38627 ft 510 kts 63°
2026-05-08 06:46 51.75898 -54.68237 38611 ft 510 kts 63°
2026-05-08 06:46 51.79062 -54.57925 38600 ft 510 kts 64°
2026-05-08 06:47 51.81897 -54.47415 38592 ft 510 kts 68°
2026-05-08 06:47 51.84804 -54.36942 38573 ft 511 kts 65°
2026-05-08 06:48 51.87793 -54.26591 38591 ft 510 kts 65°
2026-05-08 06:48 51.90797 -54.16177 38584 ft 510 kts 65°
2026-05-08 06:49 51.93794 -54.05746 38574 ft 510 kts 65°
2026-05-08 06:49 51.96771 -53.95331 38570 ft 510 kts 65°
2026-05-08 06:50 51.99728 -53.84938 38579 ft 509 kts 65°
2026-05-08 06:50 52.02692 -53.74473 38610 ft 509 kts 65°
2026-05-08 06:51 52.05646 -53.63995 38671 ft 508 kts 65°
2026-05-08 06:51 52.08557 -53.53621 38759 ft 507 kts 65°
2026-05-08 06:52 52.11474 -53.43175 38881 ft 504 kts 65°
2026-05-08 06:52 52.14375 -53.32744 38982 ft 504 kts 65°
2026-05-08 06:53 52.17239 -53.22401 39043 ft 503 kts 65°
2026-05-08 06:53 52.20098 -53.12024 39078 ft 503 kts 65°
2026-05-08 06:54 52.22957 -53.01601 39093 ft 502 kts 65°
2026-05-08 06:54 52.25803 -52.91180 39097 ft 502 kts 65°
2026-05-08 06:55 52.28642 -52.80735 39095 ft 502 kts 65°
2026-05-08 06:55 52.31452 -52.70350 39091 ft 502 kts 66°
2026-05-08 06:56 52.34271 -52.59883 39087 ft 502 kts 66°
2026-05-08 06:56 52.37085 -52.49386 39086 ft 501 kts 66°
2026-05-08 06:57 52.39848 -52.39027 39163 ft 495 kts 65°
2026-05-08 06:57 52.42599 -52.28680 39169 ft 495 kts 66°
2026-05-08 06:58 52.45324 -52.18372 39170 ft 495 kts 66°
2026-05-08 06:58 52.48064 -52.07964 39170 ft 495 kts 66°
2026-05-08 06:59 52.50765 -51.97658 39170 ft 494 kts 66°
2026-05-08 06:59 52.53469 -51.87292 39170 ft 493 kts 66°
2026-05-08 07:00 52.56164 -51.76910 39170 ft 494 kts 66°
2026-05-08 07:00 52.58850 -51.66518 39170 ft 494 kts 66°
2026-05-08 07:01 52.61525 -51.56119 39170 ft 494 kts 66°
2026-05-08 07:01 52.64191 -51.45706 39170 ft 492 kts 66°
2026-05-08 07:02 52.66840 -51.35316 39170 ft 491 kts 66°
2026-05-08 07:02 52.69460 -51.24988 39170 ft 491 kts 66°
2026-05-08 07:03 52.72090 -51.14572 39170 ft 491 kts 66°
2026-05-08 07:03 52.74714 -51.04129 39170 ft 492 kts 66°
2026-05-08 07:04 52.76885 -50.95453 39170 ft 491 kts 66°
2026-05-08 07:04 52.79490 -50.84998 39170 ft 491 kts 66°
2026-05-08 07:05 52.82083 -50.74542 39170 ft 491 kts 66°
2026-05-08 07:05 52.84652 -50.64133 39170 ft 491 kts 67°
2026-05-08 07:06 52.87221 -50.53675 39170 ft 490 kts 67°
2026-05-08 07:06 52.89775 -50.43220 39170 ft 488 kts 66°
2026-05-08 07:07 52.92316 -50.32781 39170 ft 488 kts 67°
2026-05-08 07:07 52.94847 -50.22330 39170 ft 488 kts 67°
2026-05-08 07:08 52.97348 -50.11950 39170 ft 487 kts 67°
2026-05-08 07:08 52.99858 -50.01484 39170 ft 487 kts 67°
2026-05-08 07:09 53.02345 -49.90989 39170 ft 487 kts 66°
2026-05-08 07:09 53.04919 -49.80641 39170 ft 487 kts 66°
2026-05-08 07:10 53.07527 -49.70221 39170 ft 487 kts 66°
2026-05-08 07:10 53.10121 -49.59832 39170 ft 486 kts 66°
2026-05-08 07:11 53.12707 -49.49430 39170 ft 485 kts 66°
2026-05-08 07:11 53.15271 -49.39061 39160 ft 483 kts 66°
2026-05-08 07:12 53.17811 -49.28747 39159 ft 483 kts 66°
2026-05-08 07:12 53.20355 -49.18362 39158 ft 483 kts 66°
2026-05-08 07:13 53.22892 -49.07955 39156 ft 483 kts 66°
2026-05-08 07:13 53.25400 -48.97613 39152 ft 483 kts 66°
2026-05-08 07:14 53.27920 -48.87174 39146 ft 483 kts 66°
2026-05-08 07:14 53.30413 -48.76792 39139 ft 483 kts 66°
2026-05-08 07:15 53.32908 -48.66357 39130 ft 483 kts 66°
2026-05-08 07:15 53.35396 -48.55896 39120 ft 483 kts 66°
2026-05-08 07:16 53.37872 -48.45434 39093 ft 482 kts 66°
2026-05-08 07:16 53.40333 -48.34984 39072 ft 482 kts 66°
2026-05-08 07:17 53.42774 -48.24570 39063 ft 482 kts 66°
2026-05-08 07:17 53.45220 -48.14082 39056 ft 482 kts 66°
2026-05-08 07:18 53.47656 -48.03585 39051 ft 483 kts 67°
2026-05-08 07:18 53.50084 -47.93063 39028 ft 482 kts 66°
2026-05-08 07:19 53.52494 -47.82578 39023 ft 482 kts 66°
2026-05-08 07:19 53.54900 -47.72057 39022 ft 483 kts 67°
2026-05-08 07:20 53.57304 -47.61488 39022 ft 483 kts 67°
2026-05-08 07:20 53.59692 -47.50936 39022 ft 483 kts 67°
2026-05-08 07:21 53.62067 -47.40385 39022 ft 481 kts 66°
2026-05-08 07:21 53.64430 -47.29843 39022 ft 481 kts 67°
2026-05-08 07:22 53.66771 -47.19342 39022 ft 481 kts 67°
2026-05-08 07:22 53.69113 -47.08779 39022 ft 481 kts 67°
2026-05-08 07:23 53.71450 -46.98187 39022 ft 481 kts 67°
2026-05-08 07:23 53.73764 -46.87647 39022 ft 480 kts 67°
2026-05-08 07:24 53.76080 -46.77041 39022 ft 480 kts 67°
2026-05-08 07:24 53.78384 -46.66435 39022 ft 478 kts 67°
2026-05-08 07:25 53.80653 -46.55942 39022 ft 478 kts 67°
2026-05-08 07:26 53.84066 -46.40050 39022 ft 477 kts 66°
2026-05-08 07:26 53.86310 -46.29534 39022 ft 477 kts 66°
2026-05-08 07:27 53.88555 -46.18954 39022 ft 477 kts 67°
2026-05-08 07:27 53.90793 -46.08356 39022 ft 477 kts 67°
2026-05-08 07:28 53.93019 -45.97761 39022 ft 477 kts 67°
2026-05-08 07:28 53.95237 -45.87145 39022 ft 477 kts 67°
2026-05-08 07:29 53.97446 -45.76511 39022 ft 477 kts 67°
2026-05-08 07:29 53.99643 -45.65887 39022 ft 477 kts 67°
2026-05-08 07:30 54.01818 -45.55305 39022 ft 477 kts 67°
2026-05-08 07:30 54.03997 -45.44649 39022 ft 476 kts 67°
2026-05-08 07:31 54.06165 -45.33998 39022 ft 476 kts 67°
2026-05-08 07:31 54.08323 -45.23328 39022 ft 476 kts 67°
2026-05-08 07:32 54.10474 -45.12643 39022 ft 476 kts 67°
2026-05-08 07:32 54.12613 -45.01954 39022 ft 476 kts 67°
2026-05-08 07:33 54.14731 -44.91313 39022 ft 477 kts 67°
2026-05-08 07:33 54.16856 -44.80579 39022 ft 477 kts 67°
2026-05-08 07:34 54.18976 -44.69807 39022 ft 478 kts 68°
2026-05-08 07:34 54.21085 -44.59036 39022 ft 478 kts 68°
2026-05-08 07:35 54.23173 -44.48308 39022 ft 479 kts 68°
2026-05-08 07:35 54.25268 -44.37486 39022 ft 479 kts 68°
2026-05-08 07:36 54.27354 -44.26647 39022 ft 479 kts 68°
2026-05-08 07:36 54.29432 -44.15790 39022 ft 480 kts 68°
2026-05-08 07:37 54.31490 -44.04975 39022 ft 480 kts 68°
2026-05-08 07:37 54.33547 -43.94104 39022 ft 479 kts 68°
2026-05-08 07:38 54.35596 -43.83216 39022 ft 479 kts 68°
2026-05-08 07:38 54.37634 -43.72320 39022 ft 479 kts 68°
2026-05-08 07:39 54.39652 -43.61467 39022 ft 479 kts 68°
2026-05-08 07:39 54.41670 -43.50548 39022 ft 479 kts 68°
2026-05-08 07:40 54.43677 -43.39631 39022 ft 478 kts 68°
2026-05-08 07:40 54.45658 -43.28787 39022 ft 478 kts 68°
2026-05-08 07:41 54.47642 -43.17865 39022 ft 478 kts 69°
2026-05-08 07:41 54.49617 -43.06925 39022 ft 479 kts 69°
2026-05-08 07:42 54.51585 -42.95960 39022 ft 478 kts 69°
2026-05-08 07:42 54.53536 -42.85027 39022 ft 478 kts 69°
2026-05-08 07:43 54.55480 -42.74078 39022 ft 478 kts 69°
2026-05-08 07:43 54.57403 -42.63177 39022 ft 478 kts 69°
2026-05-08 07:44 54.59336 -42.52158 39022 ft 478 kts 69°
2026-05-08 07:44 54.61250 -42.41178 39023 ft 477 kts 69°
2026-05-08 07:45 54.63140 -42.30263 39022 ft 477 kts 70°
2026-05-08 07:45 54.65034 -42.19264 39022 ft 477 kts 70°
2026-05-08 07:46 54.66916 -42.08262 39022 ft 477 kts 70°
2026-05-08 07:46 54.68789 -41.97250 39022 ft 478 kts 70°
2026-05-08 07:47 54.70652 -41.86223 39023 ft 477 kts 70°
2026-05-08 07:47 54.72488 -41.75288 39022 ft 476 kts 70°
2026-05-08 07:48 54.74326 -41.64274 39021 ft 476 kts 70°
2026-05-08 07:48 54.76154 -41.53247 39022 ft 476 kts 70°
2026-05-08 07:49 54.77972 -41.42214 39022 ft 477 kts 70°
2026-05-08 07:49 54.79786 -41.31133 39022 ft 477 kts 70°
2026-05-08 07:50 54.81579 -41.20110 39023 ft 477 kts 70°
2026-05-08 07:50 54.83373 -41.09004 39022 ft 477 kts 70°
2026-05-08 07:51 54.84858 -40.99763 39022 ft 477 kts 70°
2026-05-08 07:51 54.86919 -40.86843 39022 ft 477 kts 70°
2026-05-08 07:52 54.88397 -40.77517 39022 ft 478 kts 70°
2026-05-08 07:52 54.90154 -40.66370 39022 ft 478 kts 70°
2026-05-08 07:53 54.91890 -40.55274 39023 ft 479 kts 71°
2026-05-08 07:53 54.93630 -40.44077 39022 ft 479 kts 70°
2026-05-08 07:54 54.95365 -40.32846 39022 ft 480 kts 70°
2026-05-08 07:54 54.97090 -40.21600 39022 ft 481 kts 71°
2026-05-08 07:55 54.98795 -40.10401 39022 ft 481 kts 71°
2026-05-08 07:55 55.00454 -39.99099 39020 ft 484 kts 74°
2026-05-08 07:56 55.01843 -39.87637 39022 ft 482 kts 72°
2026-05-08 07:56 55.03440 -39.76262 39022 ft 481 kts 71°
2026-05-08 07:57 55.05037 -39.64991 39022 ft 481 kts 71°
2026-05-08 07:57 55.06637 -39.53657 39022 ft 481 kts 71°
2026-05-08 07:58 55.08228 -39.42305 39022 ft 480 kts 71°
2026-05-08 07:58 55.09805 -39.30968 39022 ft 480 kts 71°
2026-05-08 07:59 55.11370 -39.19621 39022 ft 480 kts 71°
2026-05-08 07:59 55.12917 -39.08325 39022 ft 480 kts 71°
2026-05-08 08:00 55.14458 -38.96975 39022 ft 480 kts 72°
2026-05-08 08:00 55.15989 -38.85614 39022 ft 480 kts 72°
2026-05-08 08:01 55.17508 -38.74251 39022 ft 479 kts 72°
2026-05-08 08:01 55.19016 -38.62883 39022 ft 479 kts 72°
2026-05-08 08:02 55.20501 -38.51592 39037 ft 478 kts 72°
2026-05-08 08:02 55.21984 -38.40237 39043 ft 477 kts 72°
2026-05-08 08:03 55.23452 -38.28898 39040 ft 477 kts 73°
2026-05-08 08:03 55.24912 -38.17535 39023 ft 477 kts 73°
2026-05-08 08:04 55.26360 -38.06176 39022 ft 477 kts 73°
2026-05-08 08:04 55.27788 -37.94872 39022 ft 477 kts 73°
2026-05-08 08:05 55.29214 -37.83501 39031 ft 476 kts 73°
2026-05-08 08:05 55.30630 -37.72116 39054 ft 477 kts 73°
2026-05-08 08:06 55.32033 -37.60733 39058 ft 477 kts 73°
2026-05-08 08:06 55.33417 -37.49416 39060 ft 477 kts 73°
2026-05-08 08:07 55.34797 -37.38035 39025 ft 475 kts 73°
2026-05-08 08:07 55.36168 -37.26647 39023 ft 476 kts 73°
2026-05-08 08:08 55.37526 -37.15258 39022 ft 476 kts 73°
2026-05-08 08:08 55.38872 -37.03866 39023 ft 476 kts 73°
2026-05-08 08:09 55.40202 -36.92521 39023 ft 476 kts 73°
2026-05-08 08:09 55.41529 -36.81103 39022 ft 476 kts 73°
2026-05-08 08:10 55.42844 -36.69687 39023 ft 476 kts 73°
2026-05-08 08:10 55.44151 -36.58239 39022 ft 476 kts 74°
2026-05-08 08:11 55.45437 -36.46870 39022 ft 475 kts 74°
2026-05-08 08:11 55.46719 -36.35439 39023 ft 475 kts 74°
2026-05-08 08:12 55.47991 -36.23998 39023 ft 475 kts 74°
2026-05-08 08:12 55.49245 -36.12618 39022 ft 475 kts 74°
2026-05-08 08:13 55.50494 -36.01167 39021 ft 475 kts 74°
2026-05-08 08:13 55.51733 -35.89717 39023 ft 475 kts 74°
2026-05-08 08:14 55.52963 -35.78233 39022 ft 475 kts 74°
2026-05-08 08:14 55.54180 -35.66762 39022 ft 475 kts 74°
2026-05-08 08:15 55.55379 -35.55362 39022 ft 475 kts 74°
2026-05-08 08:15 55.56574 -35.43877 39022 ft 475 kts 74°
2026-05-08 08:16 55.57760 -35.32384 39022 ft 475 kts 74°
2026-05-08 08:16 55.58936 -35.20871 39022 ft 475 kts 74°
2026-05-08 08:17 55.60103 -35.09329 39022 ft 476 kts 75°
2026-05-08 08:17 55.61249 -34.97885 39022 ft 477 kts 75°
2026-05-08 08:18 55.62400 -34.86275 39022 ft 478 kts 75°
2026-05-08 08:18 55.63538 -34.74676 39022 ft 479 kts 75°
2026-05-08 08:19 55.64668 -34.63041 39022 ft 479 kts 75°
2026-05-08 08:19 55.65782 -34.51456 39022 ft 479 kts 75°
2026-05-08 08:20 55.66891 -34.39794 39022 ft 481 kts 75°
2026-05-08 08:20 55.67993 -34.28085 39023 ft 481 kts 76°
2026-05-08 08:21 55.69082 -34.16387 39021 ft 481 kts 76°
2026-05-08 08:21 55.70158 -34.04710 39022 ft 483 kts 76°
2026-05-08 08:22 55.71231 -33.92927 39022 ft 483 kts 76°
2026-05-08 08:22 55.72292 -33.81155 39022 ft 483 kts 76°
2026-05-08 08:23 55.73343 -33.69358 39021 ft 484 kts 76°
2026-05-08 08:23 55.74378 -33.57606 39022 ft 484 kts 76°
2026-05-08 08:24 55.75411 -33.45750 39022 ft 486 kts 77°
2026-05-08 08:24 55.76432 -33.33886 39023 ft 486 kts 77°
2026-05-08 08:25 55.77436 -33.22074 39022 ft 487 kts 77°
2026-05-08 08:25 55.78436 -33.10179 39023 ft 487 kts 77°
2026-05-08 08:26 55.79427 -32.98252 39023 ft 487 kts 77°
2026-05-08 08:26 55.80409 -32.86322 39023 ft 487 kts 77°
2026-05-08 08:27 55.81376 -32.74399 39023 ft 488 kts 77°
2026-05-08 08:27 55.82331 -32.62499 39022 ft 488 kts 77°
2026-05-08 08:28 55.83279 -32.50521 39023 ft 489 kts 77°
2026-05-08 08:28 55.84213 -32.38572 39021 ft 490 kts 78°
2026-05-08 08:29 55.85139 -32.26569 39023 ft 490 kts 78°
2026-05-08 08:29 55.86056 -32.14537 39023 ft 491 kts 78°
2026-05-08 08:30 55.86962 -32.02479 39021 ft 490 kts 78°
2026-05-08 08:30 55.88298 -31.84382 39023 ft 491 kts 78°